Location: Nelson
(41.2830°S, 173.2830°E)
Time: 04:40:08
(UTC+13:00)

Radarsat Rocket - Pass Details

Date: 29 September 2021
Orbit: 933 x 1492 km, 100.6° (Epoch: 23 October)

Event Time Altitude Azimuth Distance (km) Brightness Sun altitude
Rises 19:45:18 0° 162° (SSE) 4,241 7.2 -3.6°
Reaches altitude 10° 19:48:11 10° 158° (SSE) 3,187 6.5 -4.1°
Maximum altitude 19:55:18 62° 78° (ENE) 1,235 4.3 -5.5°
Drops below altitude 10° 20:01:31 10° 357° (N) 2,799 6.4 -6.6°
Sets 20:03:54 0° 353° (N) 3,691 7.0 -7.1°
